Location: Veytaux
(46.4185°N, 6.9320°E)
Time: 08:09:29
(UTC+00:00)

Cosmos 2181 Rocket - Pass Details

Date: 27 May 2022
Orbit: 952 x 1015 km, 82.9° (Epoch: 01 July)

Event Time Altitude Azimuth Distance (km) Brightness Sun altitude
Exits shadow 02:25:50 - 178° (S) 3,334 6.4 -11.4°
Reaches altitude 10° 02:27:28 10° 176° (S) 2,719 5.9 -11.3°
Maximum altitude 02:33:38 69° 95° (E) 1,030 4.3 -10.5°
Drops below altitude 10° 02:39:46 10° 13° (NNE) 2,701 7.3 -9.8°
Sets 02:42:16 0° 11° (N) 3,646 8.0 -9.5°
